This demonstration page uses our WeatherBlox Daily Observations layout. Learn more.

Left ArrowRight Arrow

Hourly Observations for September 9, 2018

Temp ( °F °C ) Dew Point ( °F °C ) Humidity (%) Winds ( mph kmh ) Pressure ( in mb ) Visibility ( mi km ) Precip ( " mm )
12:54 am 00:54 Cloudy 64 17.8 56 13.3 75 75 ESE 9 15 30.09 1019 10 16 0.00 0.00
1:54 am 01:54 Mostly Clear 61 16.1 55 12.8 81 81 ESE 5 7 30.08 1019 10 16 0.00 0.00
2:54 am 02:54 Clear 60 15.6 55 12.8 84 84 undefined N/A 30.07 1018 10 16 0.00 0.00
3:54 am 03:54 Clear 59 15 55 12.8 87 87 Calm 30.07 1018 10 16 0.00 0.00
4:54 am 04:54 Clear 54 12.2 52 11.1 93 93 NNE 3 6 30.07 1018 10 16 0.00 0.00
5:54 am 05:54 Clear 55 12.8 52 11.1 90 90 Calm 30.07 1018 10 16 0.00 0.00
6:54 am 06:54 Clear 54 12.2 52 11.1 93 93 Calm 30.06 1018 10 16 0.00 0.00
7:54 am 07:54 Sunny 55 12.8 53 11.7 93 93 Calm 30.07 1018 10 16 0.00 0.00
8:54 am 08:54 Sunny 60 15.6 55 12.8 84 84 SE 3 6 30.08 1019 10 16 0.00 0.00
9:54 am 09:54 Sunny 64 17.8 56 13.3 75 75 SSE 9 15 30.08 1019 10 16 0.00 0.00
10:54 am 10:54 Sunny 67 19.4 57 13.9 71 71 SSE 8 13 30.08 1019 10 16 0.00 0.00
11:54 am 11:54 Sunny 71 21.7 58 14.4 63 63 SSE 8 13 30.06 1018 10 16 0.00 0.00
12:54 pm 12:54 Mostly Sunny 71 21.7 56 13.3 59 59 SE 7 11 30.04 1017 10 16 0.00 0.00
2:54 pm 14:54 Sunny 74 23.3 55 12.8 52 52 SSE 8 13 30.00 1016 10 16 0.00 0.00
3:54 pm 15:54 Sunny 75 23.9 57 13.9 54 54 VRB 6 9 29.98 1015 10 16 0.00 0.00
4:54 pm 16:54 Sunny 75 23.9 53 11.7 46 46 SSE 6 9 29.97 1015 10 16 0.00 0.00
5:54 pm 17:54 Sunny 74 23.3 55 12.8 52 52 SSE 8 13 29.96 1015 10 16 0.00 0.00
6:54 pm 18:54 Sunny 72 22.2 56 13.3 57 57 SSE 8 13 29.96 1015 10 16 0.00 0.00
7:54 pm 19:54 Clear 70 21.1 56 13.3 61 61 SE 7 11 29.97 1015 10 16 0.00 0.00
8:54 pm 20:54 Clear 66 18.9 57 13.9 73 73 SE 6 9 29.98 1015 10 16 0.00 0.00
9:54 pm 21:54 Clear 64 17.8 57 13.9 78 78 SSE 3 6 30.00 1016 10 16 0.00 0.00
10:54 pm 22:54 Clear 63 17.2 57 13.9 81 81 S 6 9 29.99 1016 10 16 0.00 0.00
11:54 pm 23:54 Clear 61 16.1 56 13.3 84 84 S 5 7 30.00 1016 10 16 0.00 0.00

Powered by AerisWeather